Weather History for Greenville, ME

Change the Weather History Date:

Sunday, April 7, 2013

  Actual Average (KMLT) Record (KMLT)
Temperature  
Mean Temperature 29 °F 37 °F  
Max Temperature 41 °F 46 °F 74 °F (1928)
Min Temperature 19 °F 27 °F 10 °F (1995)
Degree Days  
Heating Degree Days 36 28  
Month to date heating degree days 208  
Since 1 July heating degree days 7407  
Cooling Degree Days 0 0  
Month to date cooling degree days 0  
Year to date cooling degree days 0  
Moisture  
Dew Point 15 °F    
Average Humidity 56    
Maximum Humidity 89    
Minimum Humidity 43    
Precipitation  
Precipitation 0.00 in 0.12 in 1.02 in (1958)
Month to date precipitation 0.91  
Year to date precipitation 9.08  
Sea Level Pressure  
Sea Level Pressure 30.10 in    
Wind  
Wind Speed 5 mph (SSE)    
Max Wind Speed 17 mph    
Max Gust Speed 32 mph    
T = Trace of Precipitation, MM = Missing Value Source: NWS Daily Summary

Daily Weather History Graph

Daily Weather History Graph

Search for Another Location

Airport:

Trip Planner

Search our weather history database for the weather conditions in past years. The results will help you decide how hot, cold, wet, or windy it might be!

Date:

Astronomy

Apr. 07, 2013 Rise Set
Actual Time 6:07 AM EDT 7:14 PM EDT
Civil Twilight 5:36 AM EDT 7:44 PM EDT
Nautical Twilight 5:00 AM EDT 8:21 PM EDT
Astronomical Twilight 4:22 AM EDT 8:59 PM EDT
Moon 4:30 AM EDT (4/7) 4:37 PM EDT (4/7)
Length of Visible Light 14h 08m
Length of Day
13h 07m
Waning Crescent, 8% of the Moon is Illuminated
Apr 7
Waning Crescent
Apr 10
New
Apr 18
First Quarter
Apr 25
Full
May 2
Last Quarter

Hourly Weather History & Observations

Time (EDT) Temp. Windchill Dew Point Humidity Pressure Visibility Wind Dir Wind Speed Gust Speed Precip Events Conditions
12:56 AM 19.0 °F - 3.0 °F 50% 30.30 in - Calm Calm - N/A   Unknown
1:56 AM 21.0 °F - 3.9 °F 48% 30.30 in - Calm Calm - N/A   Unknown
2:56 AM 19.9 °F - 3.0 °F 48% 30.28 in - Calm Calm - N/A   Unknown
3:56 AM 19.9 °F 11.1 °F 5.0 °F 52% 30.26 in - NE 6.9 mph - N/A   Unknown
4:56 AM 21.0 °F - 5.0 °F 50% 30.25 in - Calm Calm - N/A   Unknown
5:56 AM 21.0 °F 16.2 °F 6.1 °F 53% 30.25 in - Variable 3.5 mph - N/A   Unknown
6:56 AM 21.0 °F 14.6 °F 6.1 °F 53% 30.25 in - SE 4.6 mph - N/A   Unknown
7:56 AM 23.0 °F 15.8 °F 7.0 °F 50% 30.26 in - SSE 5.8 mph - N/A   Unknown
8:56 AM 25.0 °F 18.1 °F 6.1 °F 45% 30.25 in - SSE 5.8 mph - N/A   Unknown
9:56 AM 26.1 °F 17.6 °F 8.1 °F 47% 30.22 in - South 8.1 mph - N/A   Unknown
10:56 AM 27.0 °F 18.0 °F 9.0 °F 47% 30.17 in - SSE 9.2 mph 21.9 mph N/A   Unknown
11:56 AM 30.0 °F 22.4 °F 14.0 °F 51% 30.12 in - SSE 8.1 mph 24.2 mph N/A   Unknown
12:56 PM 36.0 °F 27.5 °F 19.9 °F 52% 30.09 in - South 12.7 mph 29.9 mph N/A   Unknown
1:56 PM 37.0 °F 28.1 °F 21.0 °F 52% 30.04 in - South 15.0 mph 28.8 mph N/A   Unknown
2:56 PM 37.9 °F 30.5 °F 21.9 °F 53% 30.00 in - South 11.5 mph 21.9 mph N/A   Unknown
3:56 PM 39.9 °F 31.1 °F 19.0 °F 43% 29.96 in - SSE 17.3 mph 28.8 mph N/A   Unknown
4:56 PM 39.9 °F 32.1 °F 19.9 °F 45% 29.93 in - South 13.8 mph 32.2 mph N/A   Unknown
5:56 PM 39.0 °F 31.4 °F 23.0 °F 53% 29.96 in - South 12.7 mph 21.9 mph N/A   Unknown
6:56 PM 37.0 °F 30.4 °F 25.0 °F 62% 29.95 in - South 9.2 mph - N/A   Unknown
7:56 PM 36.0 °F 29.0 °F 26.1 °F 67% 29.93 in - SSE 9.2 mph 16.1 mph N/A   Unknown
8:56 PM 35.1 °F 30.1 °F 27.0 °F 72% 29.93 in - Variable 5.8 mph - N/A   Unknown
9:56 PM 35.1 °F 29.3 °F 28.9 °F 78% 29.91 in - SSE 6.9 mph - N/A   Unknown
10:56 PM 34.0 °F 28.8 °F 30.0 °F 85% 29.88 in - SSE 5.8 mph - N/A   Unknown
11:56 PM 34.0 °F 28.8 °F 30.9 °F 89% 29.87 in - SSE 5.8 mph - N/A   Unknown